Princeton, MN

7:26 PM CST on December 07, 2019 (GMT -0600)
Princeton Municipal

Weather History for KPNM - November, 2019

Change the Weather History Date:

Saturday, November 16, 2019

  Actual Average Record
Temperature  
Mean Temperature 40 °F -  
Max Temperature 48 °F 37 °F 64 °F (2001)
Min Temperature 32 °F 22 °F 1 °F (1997)
Degree Days  
Heating Degree Days 25    
Moisture  
Dew Point 29 °F    
Average Humidity 67    
Maximum Humidity 93    
Minimum Humidity 46    
Precipitation  
Precipitation 0.00 in - - ()
Sea Level Pressure  
Sea Level Pressure 30.07 in    
Wind  
Wind Speed 10 mph (SE)    
Max Wind Speed 20 mph    
Max Gust Speed 26 mph    
Visibility 10 miles    
Events Rain    
Averages and records for this station are not official NWS values.
T = Trace of Precipitation, MM = Missing Value Source: NWS Daily Summary

Daily Weather History Graph

Daily Weather History Graph

Search for Another Location

Airport or City:

Astronomy

Nov. 16, 2019 Rise Set
Actual Time 7:14 AM CST 4:43 PM CST
Civil Twilight 6:42 AM CST 5:15 PM CST
Nautical Twilight 6:06 AM CST 5:51 PM CST
Astronomical Twilight 5:31 AM CST 6:26 PM CST
Moon 8:11 PM CST (11/16) 11:14 AM CST (11/16)
Length of Visible Light 10h 32m
Length of Day
9h 28m
Waning Gibbous, 82% of the Moon is Illuminated
Nov 16
Waning Gibbous
Nov 19
Last Quarter
Nov 26
New
Dec 4
First Quarter
Dec 11
Full

Hourly Weather History & Observations

Time (CST) Temp. Windchill Dew Point Humidity Pressure Visibility Wind Dir Wind Speed Gust Speed Precip Events Conditions
12:15 AM 33.8 °F 25.8 °F 17.6 °F 52% 30.25 in 10.0 mi ESE 10.4 mph - N/A   Scattered Clouds
12:16 AM 33.8 °F 25.8 °F 17.6 °F 52% 30.25 in 10.0 mi ESE 10.4 mph - N/A   Scattered Clouds
12:35 AM 33.8 °F 26.4 °F 19.4 °F 56% 30.24 in 10.0 mi ESE 9.2 mph - N/A   Scattered Clouds
12:36 AM 33.8 °F 27.0 °F 19.4 °F 56% 30.24 in 10.0 mi ESE 8.1 mph - N/A   Scattered Clouds
12:55 AM 33.8 °F 27.0 °F 19.4 °F 56% 30.24 in 10.0 mi ESE 8.1 mph - N/A   Scattered Clouds
12:56 AM 33.8 °F 25.8 °F 19.4 °F 56% 30.23 in 10.0 mi ESE 10.4 mph - N/A   Scattered Clouds
1:15 AM 33.8 °F 26.4 °F 19.4 °F 56% 30.23 in 10.0 mi ESE 9.2 mph - N/A   Mostly Cloudy
1:16 AM 33.8 °F 25.8 °F 19.4 °F 56% 30.23 in 10.0 mi ESE 10.4 mph - N/A   Scattered Clouds
1:35 AM 33.8 °F 27.0 °F 21.2 °F 60% 30.22 in 10.0 mi ESE 8.1 mph - N/A   Scattered Clouds
1:36 AM 33.8 °F 27.0 °F 21.2 °F 60% 30.22 in 10.0 mi ESE 8.1 mph - N/A   Scattered Clouds
1:55 AM 33.8 °F 27.7 °F 21.2 °F 60% 30.21 in 10.0 mi ESE 6.9 mph - N/A   Clear
2:15 AM 33.8 °F 27.0 °F 23.0 °F 65% 30.21 in 10.0 mi ESE 8.1 mph - N/A   Scattered Clouds
2:16 AM 33.8 °F 26.4 °F 23.0 °F 65% 30.21 in 10.0 mi ESE 9.2 mph - N/A   Scattered Clouds
2:35 AM 32.0 °F 24.8 °F 23.0 °F 69% 30.20 in 10.0 mi ESE 8.1 mph - N/A   Scattered Clouds
2:36 AM 32.0 °F 24.8 °F 24.8 °F 75% 30.20 in 10.0 mi ESE 8.1 mph - N/A   Scattered Clouds
2:55 AM 32.0 °F 25.6 °F 24.8 °F 75% 30.19 in 10.0 mi ESE 6.9 mph - N/A   Scattered Clouds
3:15 AM 33.8 °F 27.0 °F 26.6 °F 75% 30.18 in 10.0 mi ESE 8.1 mph - N/A   Clear
3:35 AM 33.8 °F 27.7 °F 26.6 °F 75% 30.18 in 10.0 mi ESE 6.9 mph - N/A   Clear
3:55 AM 33.8 °F 27.7 °F 28.4 °F 81% 30.17 in 10.0 mi SE 6.9 mph - N/A   Clear
3:56 AM 33.8 °F 27.0 °F 28.4 °F 81% 30.17 in 10.0 mi SE 8.1 mph - N/A   Clear
4:15 AM 33.8 °F 26.4 °F 28.4 °F 81% 30.17 in 10.0 mi SE 9.2 mph - N/A   Clear
4:16 AM 33.8 °F 26.4 °F 28.4 °F 81% 30.17 in 10.0 mi SE 9.2 mph - N/A   Clear
4:35 AM 33.8 °F 27.7 °F 28.4 °F 81% 30.16 in 10.0 mi ESE 6.9 mph - N/A   Clear
4:36 AM 33.8 °F 27.7 °F 28.4 °F 81% 30.16 in 10.0 mi SE 6.9 mph - N/A   Clear
4:55 AM 33.8 °F 27.7 °F 28.4 °F 81% 30.16 in 10.0 mi ESE 6.9 mph - N/A   Clear
5:15 AM 33.8 °F 27.0 °F 28.4 °F 81% 30.16 in 10.0 mi SE 8.1 mph - N/A   Clear
5:35 AM 33.8 °F 27.7 °F 28.4 °F 81% 30.16 in 10.0 mi ESE 6.9 mph - N/A   Clear
5:55 AM 33.8 °F 26.4 °F 28.4 °F 81% 30.15 in 10.0 mi SE 9.2 mph - N/A   Clear
5:56 AM 33.8 °F 26.4 °F 28.4 °F 81% 30.15 in 10.0 mi SE 9.2 mph - N/A   Clear
6:15 AM 33.8 °F 25.3 °F 28.4 °F 81% 30.15 in 10.0 mi SE 11.5 mph - N/A   Clear
6:35 AM 33.8 °F 25.8 °F 28.4 °F 81% 30.15 in 10.0 mi SE 10.4 mph - N/A   Clear
7:15 AM 35.6 °F 27.5 °F 28.4 °F 75% 30.14 in 10.0 mi ESE 11.5 mph 17.3 mph N/A   Clear
7:35 AM 35.6 °F 26.2 °F 28.4 °F 75% 30.13 in 10.0 mi SE 15.0 mph 20.7 mph N/A   Clear
7:55 AM 37.4 °F 27.8 °F 28.4 °F 70% 30.12 in 10.0 mi SE 17.3 mph 23.0 mph N/A   Clear
7:56 AM 37.4 °F 27.5 °F 28.4 °F 70% 30.13 in 10.0 mi SE 18.4 mph 23.0 mph N/A   Clear
8:15 AM 37.4 °F 28.5 °F 28.4 °F 70% 30.12 in 10.0 mi SE 15.0 mph 20.7 mph N/A   Clear
8:35 AM 37.4 °F 29.3 °F 28.4 °F 70% 30.13 in 10.0 mi SE 12.7 mph 20.7 mph N/A   Clear
8:55 AM 37.4 °F 30.3 °F 28.4 °F 70% 30.13 in 10.0 mi SE 10.4 mph 21.9 mph N/A   Clear
9:15 AM 37.4 °F 27.8 °F 28.4 °F 70% 30.12 in 10.0 mi SSE 17.3 mph 23.0 mph N/A   Clear
9:35 AM 39.2 °F 31.2 °F 28.4 °F 65% 30.12 in 10.0 mi SE 13.8 mph 23.0 mph N/A   Clear
9:55 AM 39.2 °F 31.2 °F 28.4 °F 65% 30.11 in 10.0 mi SE 13.8 mph 20.7 mph N/A   Clear
10:35 AM 41.0 °F 31.9 °F 28.4 °F 61% 30.11 in 10.0 mi SSE 19.6 mph 25.3 mph N/A   Clear
10:55 AM 42.8 °F 36.6 °F 28.4 °F 57% 30.10 in 10.0 mi SSE 11.5 mph 21.9 mph N/A   Clear
11:15 AM 42.8 °F 34.8 °F 28.4 °F 57% 30.09 in 10.0 mi SSE 17.3 mph 23.0 mph N/A   Clear
11:55 AM 44.6 °F 37.4 °F 30.2 °F 57% 30.06 in 10.0 mi SSE 16.1 mph 21.9 mph N/A   Clear
12:15 PM 48.2 °F - 28.4 °F 46% 30.05 in 10.0 mi SSE 18.4 mph 24.2 mph N/A   Clear
12:35 PM 46.4 °F 39.8 °F 28.4 °F 50% 30.04 in 10.0 mi SSE 16.1 mph 26.5 mph N/A   Clear
12:55 PM 46.4 °F 40.7 °F 28.4 °F 50% 30.03 in 10.0 mi SE 12.7 mph 24.2 mph N/A   Clear
1:15 PM 46.4 °F 40.7 °F 28.4 °F 50% 30.02 in 10.0 mi SSE 12.7 mph 18.4 mph N/A   Clear
1:35 PM 48.2 °F - 28.4 °F 46% 30.00 in 10.0 mi SE 12.7 mph 23.0 mph N/A   Clear
1:36 PM 48.2 °F - 28.4 °F 46% 30.01 in 10.0 mi SSE 13.8 mph 23.0 mph N/A   Clear
1:55 PM 46.4 °F 39.2 °F 28.4 °F 50% 30.00 in 10.0 mi SSE 18.4 mph 23.0 mph N/A   Clear
2:15 PM 46.4 °F 40.1 °F 28.4 °F 50% 30.00 in 10.0 mi SSE 15.0 mph 23.0 mph N/A   Clear
2:16 PM 46.4 °F 39.8 °F 28.4 °F 50% 29.99 in 10.0 mi SSE 16.1 mph 23.0 mph N/A   Clear
2:35 PM 48.2 °F - 28.4 °F 46% 29.99 in 10.0 mi SSE 16.1 mph 23.0 mph N/A   Clear
2:55 PM 46.4 °F 40.1 °F 26.6 °F 46% 29.99 in 10.0 mi SSE 15.0 mph 23.0 mph N/A   Clear
3:15 PM 46.4 °F 41.5 °F 28.4 °F 50% 29.98 in 10.0 mi SSE 10.4 mph - N/A   Clear
3:35 PM 46.4 °F 41.9 °F 30.2 °F 53% 29.98 in 10.0 mi SE 9.2 mph - N/A   Clear
3:36 PM 46.4 °F 41.9 °F 30.2 °F 53% 29.98 in 10.0 mi SE 9.2 mph - N/A   Clear
3:55 PM 44.6 °F 39.2 °F 30.2 °F 57% 29.98 in 10.0 mi SE 10.4 mph 16.1 mph N/A   Clear
4:15 PM 44.6 °F 37.8 °F 30.2 °F 57% 29.98 in 10.0 mi SE 15.0 mph 19.6 mph N/A   Clear
4:16 PM 44.6 °F 38.1 °F 30.2 °F 57% 29.98 in 10.0 mi SE 13.8 mph 19.6 mph N/A   Clear
4:35 PM 44.6 °F 38.1 °F 30.2 °F 57% 29.98 in 10.0 mi SSE 13.8 mph 17.3 mph N/A   Clear
4:36 PM 44.6 °F 38.4 °F 30.2 °F 57% 29.98 in 10.0 mi SSE 12.7 mph 17.3 mph N/A   Clear
4:55 PM 42.8 °F 37.5 °F 30.2 °F 61% 29.98 in 10.0 mi SSE 9.2 mph - N/A   Clear
5:16 PM 42.8 °F 37.0 °F 30.2 °F 61% 29.98 in 10.0 mi SSE 10.4 mph - N/A   Clear
5:35 PM 42.8 °F 38.0 °F 30.2 °F 61% 29.98 in 10.0 mi SSE 8.1 mph - N/A   Clear
5:36 PM 42.8 °F 38.6 °F 30.2 °F 61% 29.98 in 10.0 mi SE 6.9 mph - N/A   Clear
5:55 PM 42.8 °F 39.3 °F 30.2 °F 61% 29.99 in 10.0 mi SE 5.8 mph - N/A   Clear
5:56 PM 42.8 °F 38.6 °F 30.2 °F 61% 29.99 in 10.0 mi SSE 6.9 mph - N/A   Clear
6:15 PM 41.0 °F 35.8 °F 30.2 °F 65% 29.99 in 10.0 mi SSE 8.1 mph - N/A   Clear
6:16 PM 41.0 °F 35.8 °F 30.2 °F 65% 29.99 in 10.0 mi SSE 8.1 mph - N/A   Clear
6:35 PM 41.0 °F 35.2 °F 30.2 °F 65% 29.99 in 10.0 mi SSE 9.2 mph - N/A   Clear
6:36 PM 41.0 °F 35.2 °F 30.2 °F 65% 29.99 in 10.0 mi SSE 9.2 mph - N/A   Clear
6:55 PM 42.8 °F 37.0 °F 32.0 °F 66% 29.98 in 10.0 mi SSE 10.4 mph - N/A   Scattered Clouds
7:15 PM 42.8 °F 37.0 °F 32.0 °F 66% 29.98 in 10.0 mi SSE 10.4 mph - N/A   Clear
7:16 PM 42.8 °F 36.6 °F 32.0 °F 66% 29.98 in 10.0 mi SSE 11.5 mph - N/A   Clear
7:35 PM 42.8 °F 36.2 °F 32.0 °F 66% 29.98 in 10.0 mi SSE 12.7 mph - N/A   Clear
7:55 PM 42.8 °F 36.2 °F 32.0 °F 66% 29.98 in 10.0 mi SSE 12.7 mph 19.6 mph N/A   Clear
7:56 PM 42.8 °F 36.6 °F 32.0 °F 66% 29.98 in 10.0 mi SSE 11.5 mph 19.6 mph N/A   Clear
8:15 PM 42.8 °F 37.5 °F 32.0 °F 66% 29.97 in 10.0 mi SSE 9.2 mph 19.6 mph N/A   Clear
8:16 PM 42.8 °F 37.0 °F 32.0 °F 66% 29.97 in 10.0 mi SSE 10.4 mph 19.6 mph N/A   Clear
8:35 PM 42.8 °F 36.6 °F 32.0 °F 66% 29.97 in 10.0 mi SSE 11.5 mph 18.4 mph N/A   Clear
8:55 PM 42.8 °F 37.0 °F 33.8 °F 70% 29.97 in 10.0 mi SSE 10.4 mph 23.0 mph N/A   Clear
8:56 PM 42.8 °F 37.0 °F 33.8 °F 70% 29.97 in 10.0 mi SSE 10.4 mph 23.0 mph N/A   Clear
9:15 PM 41.0 °F 33.9 °F 33.8 °F 76% 29.96 in 10.0 mi SSE 12.7 mph 18.4 mph N/A   Clear
9:16 PM 41.0 °F 33.9 °F 33.8 °F 76% 29.96 in 10.0 mi South 12.7 mph 18.4 mph N/A   Scattered Clouds
9:35 PM 41.0 °F 34.3 °F 33.8 °F 76% 29.96 in 10.0 mi SSE 11.5 mph - N/A   Scattered Clouds
9:55 PM 41.0 °F 34.7 °F 33.8 °F 76% 29.96 in 10.0 mi SSE 10.4 mph - N/A   Clear
10:15 PM 41.0 °F 34.7 °F 33.8 °F 76% 29.95 in 10.0 mi SSE 10.4 mph - N/A   Scattered Clouds
10:16 PM 41.0 °F 35.2 °F 33.8 °F 76% 29.95 in 10.0 mi SSE 9.2 mph - N/A   Scattered Clouds
10:35 PM 39.2 °F 33.0 °F 33.8 °F 81% 29.95 in 10.0 mi SSE 9.2 mph 16.1 mph N/A   Scattered Clouds
10:55 PM 39.2 °F 34.2 °F 35.6 °F 87% 29.95 in 5.0 mi South 6.9 mph - N/A Rain Light Rain
10:56 PM 39.2 °F 35.0 °F 35.6 °F 87% 29.95 in 5.0 mi South 5.8 mph - N/A Rain Rain
11:15 PM 37.4 °F 32.8 °F 35.6 °F 93% 29.95 in 4.0 mi South 5.8 mph - N/A Rain Rain
11:16 PM 37.4 °F 33.8 °F 35.6 °F 93% 29.95 in 4.0 mi South 4.6 mph - N/A Rain Rain
11:35 PM 37.4 °F 33.8 °F 35.6 °F 93% 29.95 in 5.0 mi South 4.6 mph - N/A Rain Rain
11:55 PM 37.4 °F 33.8 °F 35.6 °F 93% 29.94 in 4.0 mi SSE 4.6 mph - N/A   Drizzle
11:56 PM 37.4 °F 34.9 °F 35.6 °F 93% 29.94 in 4.0 mi SSE 3.5 mph - N/A   Drizzle